Newport, RI

8:29 AM EDT on June 23, 2017 (GMT -0400)
Newport State

Weather History for KUUU - March, 2013

Change the Weather History Date:

Friday, March 8, 2013

  Actual Average Record
Temperature  
Mean Temperature 34 °F -  
Max Temperature 37 °F 43 °F 67 °F (1987)
Min Temperature 30 °F 28 °F 10 °F (1986)
Degree Days  
Heating Degree Days 32    
Moisture  
Dew Point 29 °F    
Average Humidity 88    
Maximum Humidity 93    
Minimum Humidity 57    
Precipitation  
Precipitation 0.00 in - - ()
Sea Level Pressure  
Sea Level Pressure 29.92 in    
Wind  
Wind Speed 18 mph (North)    
Max Wind Speed 25 mph    
Max Gust Speed 37 mph    
Visibility 2 miles    
Events Fog , Rain , Snow    
Averages and records for this station are not official NWS values.
T = Trace of Precipitation, MM = Missing Value Source: NWS Daily Summary

Daily Weather History Graph

Daily Weather History Graph

Search for Another Location

Airport or City:

Trip Planner

Search our weather history database for the weather conditions in past years. The results will help you decide how hot, cold, wet, or windy it might be!

Date:

Astronomy

Mar. 08, 2013 Rise Set
Actual Time 6:08 AM EST 5:44 PM EST
Civil Twilight 5:40 AM EST 6:11 PM EST
Nautical Twilight 5:08 AM EST 6:43 PM EST
Astronomical Twilight 4:36 AM EST 7:16 PM EST
Moon 3:52 AM EST (3/8) 2:33 PM EST (3/8)
Length of Visible Light 12h 31m
Length of Day
11h 35m
Waning Crescent, 12% of the Moon is Illuminated
Mar 8
Waning Crescent
Mar 11
New
Mar 19
First Quarter
Mar 27
Full
Apr 3
Last Quarter

Hourly Weather History & Observations

Time (EST) Temp. Windchill Dew Point Humidity Pressure Visibility Wind Dir Wind Speed Gust Speed Precip Events Conditions
12:53 AM 30.9 °F 20.2 °F 28.9 °F 92% 29.88 in 1.8 mi North 15.0 mph 25.3 mph 0.00 in Snow Light Snow
1:18 AM 30.2 °F 19.3 °F 28.4 °F 93% 29.86 in 2.0 mi North 15.0 mph 26.5 mph 0.00 in Snow Light Snow
1:53 AM 30.9 °F 18.1 °F 28.9 °F 92% 29.87 in 2.0 mi North 21.9 mph 31.1 mph 0.00 in Snow Light Snow
2:13 AM 30.2 °F 17.1 °F 28.4 °F 93% 29.87 in 2.0 mi North 21.9 mph 26.5 mph 0.00 in Snow Light Snow
2:20 AM 30.2 °F 18.1 °F 28.4 °F 93% 29.87 in 1.8 mi North 18.4 mph 28.8 mph 0.00 in Snow Light Snow
2:53 AM 30.0 °F 17.9 °F 28.0 °F 92% 29.87 in 1.0 mi North 18.4 mph 29.9 mph 0.00 in Snow Light Snow
3:18 AM 30.2 °F 18.9 °F 28.4 °F 93% 29.86 in 1.0 mi North 16.1 mph 27.6 mph 0.00 in Snow Light Snow
3:42 AM 30.2 °F 18.9 °F 28.4 °F 93% 29.86 in 1.2 mi North 16.1 mph 27.6 mph 0.00 in Snow Light Snow
3:51 AM 30.2 °F 18.1 °F 28.4 °F 93% 29.86 in 1.2 mi North 18.4 mph 27.6 mph 0.00 in Snow Light Snow
3:53 AM 30.0 °F 18.3 °F 28.0 °F 92% 29.87 in 1.2 mi North 17.3 mph 27.6 mph 0.00 in Snow Light Snow
4:10 AM 30.2 °F 17.8 °F 28.4 °F 93% 29.86 in 1.0 mi North 19.6 mph 25.3 mph 0.00 in Snow Light Snow
4:28 AM 30.2 °F 18.5 °F 28.4 °F 93% 29.87 in 0.8 mi North 17.3 mph 24.2 mph 0.00 in Snow Light Snow
4:53 AM 30.0 °F 18.7 °F 28.0 °F 92% 29.86 in 0.8 mi North 16.1 mph 25.3 mph 0.00 in Snow Light Snow
5:04 AM 30.2 °F 19.3 °F 28.4 °F 93% 29.86 in 1.0 mi North 15.0 mph 23.0 mph 0.00 in Snow Light Snow
5:53 AM 30.0 °F 18.7 °F 28.0 °F 92% 29.87 in 1.2 mi North 16.1 mph 26.5 mph 0.00 in Snow Light Snow
6:34 AM 30.2 °F 20.2 °F 28.4 °F 93% 29.87 in 0.8 mi North 12.7 mph 23.0 mph 0.00 in Snow Light Snow
6:53 AM 30.0 °F 18.7 °F 28.0 °F 92% 29.87 in 0.8 mi North 16.1 mph 25.3 mph 0.00 in Snow Light Snow
7:53 AM 30.0 °F 17.9 °F 28.0 °F 92% 29.87 in 0.8 mi North 18.4 mph 26.5 mph 0.00 in Snow Light Snow
8:43 AM 30.2 °F 18.1 °F 28.4 °F 93% 29.88 in 1.0 mi North 18.4 mph 28.8 mph 0.00 in Snow Light Snow
8:53 AM 30.9 °F 20.2 °F 28.0 °F 89% 29.88 in 1.2 mi North 15.0 mph 25.3 mph 0.00 in Snow Light Snow
9:02 AM 30.2 °F 18.1 °F 28.4 °F 93% 29.88 in 1.2 mi North 18.4 mph 27.6 mph 0.00 in Snow Light Snow
9:28 AM 30.2 °F 18.9 °F 28.4 °F 93% 29.88 in 0.8 mi North 16.1 mph 28.8 mph 0.00 in Snow Light Snow
9:38 AM 30.2 °F 18.1 °F 28.4 °F 93% 29.88 in 1.0 mi North 18.4 mph 29.9 mph 0.00 in Snow Light Snow
9:44 AM 30.2 °F 18.9 °F 28.4 °F 93% 29.88 in 0.8 mi North 16.1 mph 29.9 mph 0.00 in Snow Light Snow
9:53 AM 30.9 °F 18.7 °F 28.0 °F 89% 29.88 in 0.8 mi North 19.6 mph 29.9 mph 0.00 in Snow Light Snow
10:16 AM 30.2 °F 17.8 °F 28.4 °F 93% 29.89 in 1.0 mi North 19.6 mph 28.8 mph 0.00 in Snow Light Snow
10:23 AM 30.2 °F 18.5 °F 28.4 °F 93% 29.89 in 1.0 mi North 17.3 mph 29.9 mph 0.00 in Snow Light Snow
10:31 AM 30.2 °F 17.4 °F 28.4 °F 93% 29.89 in 0.8 mi North 20.7 mph 25.3 mph 0.00 in Snow Light Snow
10:42 AM 30.2 °F 17.4 °F 28.4 °F 93% 29.89 in 0.8 mi North 20.7 mph 31.1 mph 0.00 in Snow Light Snow
10:53 AM 30.9 °F 19.1 °F 28.0 °F 89% 29.90 in 0.5 mi North 18.4 mph 28.8 mph 0.00 in Fog , Snow Snow
11:02 AM 30.2 °F 18.5 °F 28.4 °F 93% 29.89 in 0.5 mi North 17.3 mph 26.5 mph 0.00 in Fog , Snow Snow
11:33 AM 30.2 °F 17.8 °F 28.4 °F 93% 29.90 in 1.0 mi North 19.6 mph 28.8 mph 0.00 in Snow Light Snow
11:53 AM 30.9 °F 19.1 °F 28.0 °F 89% 29.91 in 1.0 mi North 18.4 mph 28.8 mph 0.00 in Snow Light Snow
12:37 PM 32.0 °F 19.5 °F 28.4 °F 87% 29.90 in 2.0 mi North 21.9 mph 31.1 mph 0.00 in Snow Light Snow
12:53 PM 32.0 °F 20.5 °F 28.0 °F 85% 29.90 in 1.5 mi North 18.4 mph 29.9 mph 0.00 in Snow Light Snow
1:53 PM 32.0 °F 19.5 °F 28.9 °F 88% 29.92 in 0.8 mi North 21.9 mph 31.1 mph 0.00 in Snow Light Snow
2:06 PM 32.0 °F 19.8 °F 28.4 °F 87% 29.92 in 0.8 mi North 20.7 mph 28.8 mph 0.00 in Snow Light Snow
2:23 PM 32.0 °F 19.5 °F 28.4 °F 87% 29.92 in 1.0 mi North 21.9 mph 33.4 mph 0.00 in Snow Light Snow
2:37 PM 32.0 °F 19.5 °F 28.4 °F 87% 29.92 in 1.0 mi North 21.9 mph 35.7 mph 0.00 in Snow Light Snow
2:53 PM 32.0 °F 20.5 °F 28.9 °F 88% 29.93 in 0.8 mi North 18.4 mph 35.7 mph 0.00 in Snow Light Snow
2:55 PM 32.0 °F 19.5 °F 28.4 °F 87% 29.93 in 0.8 mi North 21.9 mph 35.7 mph 0.00 in Snow Light Snow
3:01 PM 32.0 °F 20.1 °F 28.4 °F 87% 29.93 in 0.8 mi North 19.6 mph 35.7 mph 0.00 in Snow Light Snow
3:16 PM 32.0 °F 19.8 °F 30.2 °F 93% 29.93 in 0.5 mi North 20.7 mph 33.4 mph 0.00 in Fog , Snow Snow
3:37 PM 33.8 °F 22.8 °F 30.2 °F 87% 29.94 in 0.8 mi North 18.4 mph 32.2 mph 0.00 in Snow Light Snow
3:53 PM 33.1 °F 21.2 °F 30.0 °F 89% 29.95 in 1.0 mi North 20.7 mph 33.4 mph 0.00 in Snow Light Snow
4:27 PM 33.8 °F 21.3 °F 30.2 °F 87% 29.97 in 3.0 mi North 24.2 mph 32.2 mph 0.00 in Snow Light Snow
4:47 PM 33.8 °F 21.0 °F 30.2 °F 87% 29.97 in 2.0 mi North 25.3 mph 36.8 mph 0.00 in Snow Light Snow
4:53 PM 33.1 °F 20.6 °F 30.9 °F 92% 29.98 in 1.5 mi North 23.0 mph 36.8 mph 0.00 in Snow Light Snow
5:14 PM 33.8 °F 21.9 °F 30.2 °F 87% 29.98 in 2.5 mi North 21.9 mph 31.1 mph 0.00 in Snow Light Snow
5:21 PM 33.8 °F 21.6 °F 30.2 °F 87% 29.99 in 1.8 mi North 23.0 mph 35.7 mph 0.00 in Snow Light Snow
5:53 PM 33.1 °F 20.6 °F 30.9 °F 92% 30.01 in 2.5 mi North 23.0 mph 32.2 mph 0.00 in Snow Light Snow
6:02 PM 33.8 °F 21.9 °F 30.2 °F 87% 30.01 in 3.0 mi North 21.9 mph 32.2 mph 0.00 in Snow Light Snow
6:34 PM 33.8 °F 22.8 °F 30.2 °F 87% 30.02 in 4.0 mi North 18.4 mph 31.1 mph 0.00 in Snow Light Snow
6:53 PM 35.1 °F 23.3 °F 32.0 °F 89% 30.03 in 8.0 mi North 23.0 mph 32.2 mph 0.00 in   Overcast
6:57 PM 35.6 °F 24.5 °F 32.0 °F 87% 30.02 in 9.0 mi North 20.7 mph 32.2 mph 0.00 in Rain Light Freezing Rain
7:31 PM 35.6 °F 26.6 °F 30.2 °F 81% 30.02 in 10.0 mi North 13.8 mph 21.9 mph 0.00 in   Overcast
7:53 PM 37.0 °F 27.7 °F 28.0 °F 70% 30.04 in 10.0 mi North 16.1 mph 25.3 mph 0.00 in   Mostly Cloudy
8:53 PM 37.0 °F 28.5 °F 27.0 °F 67% 30.04 in 10.0 mi NNW 13.8 mph 21.9 mph N/A   Clear
9:53 PM 37.0 °F 28.1 °F 25.0 °F 62% 30.06 in 10.0 mi North 15.0 mph 23.0 mph N/A   Clear
10:53 PM 37.0 °F 28.9 °F 24.1 °F 59% 30.07 in 10.0 mi North 12.7 mph 23.0 mph N/A   Clear
11:53 PM 37.0 °F 27.4 °F 23.0 °F 57% 30.07 in 10.0 mi North 17.3 mph 25.3 mph N/A   Clear